[[{"header":{"parameterUnit":"m.s-1","parameterCategory":1,"la1":30.2991,"la2":30.254,"lo1":-89.0895,"lo2":-89.0444,"dy":0.0017,"dx":0.0017,"nx":28,"ny":28,"refTime":"2024-06-19T21:00:00:Z","depth":0,"parameterNumber":2,"parameterNumberName":"U-component_of_WINDS"},"data":[0,0,0,0,0,0,0,0,0,0,0,0,0,0,0,0,0,0,0,0,0,0,0,0,0,0,0,0,0,0,0,0,0,0,0,0,0,0,0,0,0,0,0,0,0,0,0,0,0,0,0,0,0,0,0,0,0,0,-7.9403,-7.9404,0,-7.9432,-7.9433,-7.9433,-7.9262,-7.9257,-7.9252,-7.9247,-7.9278,-7.9283,-7.9289,0,0,0,0,0,0,0,0,0,0,0,0,0,-7.9201,-7.9206,-7.9403,-7.9404,-7.9404,-7.9432,-7.9433,-7.9433,-7.9262,-7.9256,-7.9251,-7.9245,-7.9276,-7.9283,-7.9289,0,0,0,0,0,0,0,0,0,0,0,0,0,-7.9266,-7.9207,-7.9403,-7.9322,-7.9315,-7.9432,-7.9433,-7.9433,-7.9264,-7.9256,-7.9249,-7.9242,-7.9274,-7.9282,-7.929,-7.9486,0,0,-7.9315,-7.9318,0,0,0,0,0,0,0,0,-7.9262,-7.9273,-7.9334,-7.9328,-7.932,-7.9336,-7.9372,-7.9451,-7.9266,-7.9283,-7.9247,-7.9239,-7.9303,-7.9309,-7.933,-7.9488,-7.9489,-7.9315,-7.932,-7.9324,-7.9326,0,0,0,0,0,0,0,-7.9258,-7.9271,-7.9415,-7.9335,-7.9327,-7.9285,-7.9286,-7.9387,-7.9334,-7.9281,-7.9269,-7.9275,-7.9298,-7.9323,-7.933,-7.949,-7.9315,-7.9322,-7.9327,-7.9331,-7.9811,-7.9818,0,0,0,0,0,0,-7.9264,-7.9268,-7.9414,-7.9415,-7.9273,-7.9294,-7.9295,-7.9338,-7.9332,-7.9325,-7.9281,-7.9266,-7.9313,-7.932,-7.933,-7.956,-7.9324,-7.9331,-7.9336,-7.9803,-7.9812,-7.9821,0,0,0,0,0,0,-7.926,-7.9279,-7.9412,-7.9339,-7.9352,-7.9306,-7.9355,-7.9343,-7.9367,-7.9332,-7.9322,-7.9316,-7.9307,-7.9319,-7.9449,-7.9559,-7.9335,-7.9342,-7.9793,-7.9806,-7.9817,-8.0022,0,0,0,0,0,0,-7.9255,-7.9278,-7.9352,-7.9342,-7.9357,-7.9531,-7.9362,-7.9349,-7.9381,-7.9363,-7.9362,-7.9355,-7.9302,-7.9438,-7.9457,-7.9566,-7.9349,-7.9783,-7.9799,-7.9813,-8.0005,-8.004,-8.0069,0,0,0,0,0,-7.9249,-7.9409,-7.9357,-7.9375,-7.9448,-7.9538,-7.9547,-7.9483,-7.9391,-7.9465,-7.9442,-7.9355,-7.9544,-7.9453,-7.9473,-7.9586,-7.9776,-7.9794,-7.9812,-7.9991,-8.0033,-8.0068,0,0,0,0,0,0,-7.9434,-7.9406,-7.9348,-7.951,-7.9528,-7.9509,-7.96,-7.9529,-7.9573,-7.9554,-7.9473,-7.9474,-7.9619,-7.9615,-7.9514,-7.9776,-7.9644,-7.9667,-7.9773,-7.9813,-7.9844,-7.9843,-7.9355,0,0,0,0,0,-7.9494,-7.9569,-7.954,-7.9685,-7.9697,-7.9648,-7.9684,-7.9634,-7.9649,-7.9656,-7.9643,-7.9661,-7.9724,-7.9768,-7.9824,-8.0003,-8.0002,-8.0091,-8.0123,-8.0149,-8.017,-8.0266,-8.0306,-7.9879,-7.9879,-7.9879,0,0,-7.9618,-7.9612,-7.9664,-7.9723,-7.973,-7.981,-7.9655,-7.9746,-7.9805,-7.9669,-7.9792,-7.9783,-7.9799,-7.9955,-8.0023,-7.9956,-8.0287,-8.0172,-8.0193,-8.02,-8.0288,-8.0329,-8.0365,-7.9892,-7.9889,-7.9887,0,0,-7.9885,-7.9888,-8.001,-8.0021,-8.0034,-8.0,-8.003,-8.0023,-8.0012,-8.0133,-8.0034,-8.0102,-8.0213,-8.0228,-8.025,-8.0524,-8.0446,-8.0545,-8.0711,-8.0805,-8.0839,-8.0868,-8.0967,-8.1004,-8.0565,-8.0566,-8.0566,0,-8.0038,-8.0154,-8.0081,-8.0179,-8.0208,-8.0089,-8.0212,-8.0227,-8.0259,-8.0282,-8.0206,-8.0343,-8.0345,-8.0503,-8.057,-8.0592,-8.0624,-8.0545,-8.084,-8.0869,-8.0895,-8.0989,-8.1026,-8.0578,-8.0577,-8.0575,-8.0574,0,-8.0342,-8.0424,-8.0521,-8.0555,-8.0594,-8.0705,-8.0649,-8.0698,-8.0644,-8.0618,-8.0744,-8.0742,-8.0796,-8.083,-8.0778,-8.0982,-8.094,-8.0854,-8.072,-8.0949,-8.1036,-8.1071,-8.0595,-8.0591,-8.0587,-8.0584,0,0,-8.0728,-8.072,-8.0757,-8.0771,-8.0778,-8.084,-8.0945,-8.0997,-8.1042,-8.1068,-8.1154,-8.1251,-8.1171,-8.1197,-8.1145,-8.1228,-8.1447,-8.1131,-8.113,-8.1191,-8.1673,-8.1739,-8.1781,-8.1394,-8.1401,-8.1406,-8.1672,0,-8.099,-8.1169,-8.1107,-8.1289,-8.1364,-8.1252,-8.1344,-8.1358,-8.1337,-8.1398,-8.1374,-8.1445,-8.1334,-8.1349,-8.1425,-8.1404,-8.1543,-8.1384,-8.1475,-8.1479,-8.1476,-8.1826,-8.1896,-8.2147,-8.1705,-8.1711,-8.1715,0,-8.132,-8.1359,-8.155,-8.1544,-8.1573,-8.1657,-8.17,-8.176,-8.1774,-8.1753,-8.1782,-8.1713,-8.1816,-8.1682,-8.1823,-8.1717,-8.175,-8.1746,-8.1754,-8.1761,-8.1612,-8.1844,-8.2226,-8.2264,-8.1767,-8.1763,-8.1759,0,-8.1584,-8.1684,-8.1811,-8.1827,-8.1823,-8.1884,-8.1886,-8.1892,-8.1928,-8.1967,-8.1989,-8.204,-8.2068,-8.2108,-8.2055,-8.1962,-8.2206,-8.2066,-8.2192,-8.2194,-8.2249,-8.2247,-8.2643,-8.2269,-8.2269,-8.2268,-8.2267,0,-8.1884,-8.2006,-8.193,-8.2009,-8.2141,-8.2069,-8.2202,-8.2191,-8.2198,-8.2272,-8.2178,-8.225,-8.2175,-8.224,-8.2199,-8.2324,-8.2337,-8.2323,-8.2311,-8.2333,-8.2335,-8.2354,-8.2336,-8.2278,-8.2276,-8.2274,-8.2272,0,-8.2202,-8.2156,-8.2288,-8.2273,-8.2272,-8.2371,-8.2359,-8.2431,-8.2403,-8.2499,-8.2517,-8.2474,-8.2546,-8.2496,-8.2568,-8.2541,-8.2705,-8.2667,-8.27,-8.2691,-8.282,-8.2809,-8.3244,-8.3298,-8.2888,-8.2892,-8.2896,0,-8.2398,-8.2488,-8.2484,-8.2527,-8.2534,-8.2605,-8.2641,-8.2573,-8.2615,-8.2638,-8.2708,-8.2772,-8.2819,-8.294,-8.2916,-8.2971,-8.2935,-8.3084,-8.2943,-8.2962,-8.2939,-8.2935,-8.2944,-8.3113,-8.3118,-8.3121,-8.3125,0,-8.275,-8.2723,-8.2778,-8.2827,-8.2873,-8.2908,-8.2935,-8.2976,-8.2907,-8.2959,-8.3032,-8.3069,-8.3143,-8.3208,-8.3254,-8.3255,-8.318,-8.3169,-8.3201,-8.3225,-8.3241,-8.3235,-8.2779,-8.316,-8.3156,-8.3154,-8.3152,-8.315,-8.3013,-8.3089,-8.3098,-8.3163,-8.3176,-8.3204,-8.3272,-8.3252,-8.3311,-8.3366,-8.3322,-8.3409,-8.3421,-8.3475,-8.3486,-8.3553,-8.3493,-8.3539,-8.3551,-8.3564,-8.3583,-8.3229,-8.3561,-8.356,-8.3559,-8.3558,-8.3558,0,-8.3361,-8.3361,-8.3422,-8.3464,-8.3516,-8.3439,-8.3465,-8.3514,-8.3592,-8.3609,-8.3658,-8.3742,-8.3805,-8.3785,-8.3842,-8.39,-8.3867,-8.3917,-8.3913,-8.3915,-8.3633,-8.36,-8.3943,-8.3943,-8.3943,-8.3943,-8.3943,-8.3942,-8.3549,-8.3673,-8.3648,-8.3778,-8.3776,-8.3861,-8.3883,-8.3908,-8.3922,-8.402,-8.4072,-8.4058,-8.4061,-8.4117,-8.4172,-8.4164,-8.419,-8.4254,-8.4234,-8.3972,-8.3934,-8.3898,-8.3867,-8.4259,-8.426,-8.451,-8.4512,-8.4514]},{"header":{"parameterUnit":"m.s-1","parameterCategory":1,"la1":30.2991,"la2":30.254,"lo1":-89.0895,"lo2":-89.0444,"dy":0.0017,"dx":0.0017,"nx":28,"ny":28,"refTime":"2024-06-19T21:00:00:Z","depth":0,"parameterNumber":3,"parameterNumberName":"V-component_of_WINDS"},"data":[0,0,0,0,0,0,0,0,0,0,0,0,0,0,0,0,0,0,0,0,0,0,0,0,0,0,0,0,0,0,0,0,0,0,0,0,0,0,0,0,0,0,0,0,0,0,0,0,0,0,0,0,0,0,0,0,0,0,-2.6351,-2.6351,0,-2.6328,-2.6328,-2.6328,-2.6295,-2.6295,-2.6294,-2.6294,-2.627,-2.627,-2.627,0,0,0,0,0,0,0,0,0,0,0,0,0,-2.6365,-2.6365,-2.6351,-2.6351,-2.6351,-2.6328,-2.6328,-2.6327,-2.6295,-2.6295,-2.6294,-2.6293,-2.627,-2.627,-2.627,0,0,0,0,0,0,0,0,0,0,0,0,0,-2.6353,-2.6365,-2.6351,-2.6332,-2.633,-2.6328,-2.6328,-2.6327,-2.6296,-2.6295,-2.6294,-2.6293,-2.627,-2.627,-2.627,-2.6285,0,0,-2.6269,-2.6269,0,0,0,0,0,0,0,0,-2.6353,-2.6352,-2.6335,-2.6333,-2.6331,-2.6314,-2.6324,-2.6313,-2.6296,-2.6309,-2.6294,-2.6293,-2.6285,-2.6284,-2.6281,-2.6284,-2.6283,-2.6269,-2.6269,-2.6269,-2.6269,0,0,0,0,0,0,0,-2.6354,-2.6353,-2.6342,-2.6335,-2.6332,-2.6324,-2.6321,-2.6322,-2.6302,-2.6307,-2.6305,-2.6303,-2.6284,-2.6282,-2.6281,-2.6283,-2.6269,-2.6269,-2.6269,-2.6269,-2.6295,-2.6295,0,0,0,0,0,0,-2.6358,-2.6354,-2.6343,-2.6341,-2.634,-2.6324,-2.6321,-2.632,-2.6302,-2.6298,-2.6303,-2.6301,-2.6282,-2.6281,-2.628,-2.6295,-2.6269,-2.6269,-2.6269,-2.6294,-2.6295,-2.6296,0,0,0,0,0,0,-2.6359,-2.6358,-2.6344,-2.6347,-2.6344,-2.6325,-2.6324,-2.632,-2.6318,-2.6299,-2.6295,-2.6305,-2.6282,-2.628,-2.6284,-2.6293,-2.6269,-2.6269,-2.6293,-2.6294,-2.6295,-2.6326,0,0,0,0,0,0,-2.6359,-2.6358,-2.6364,-2.6347,-2.6344,-2.6349,-2.6325,-2.632,-2.6317,-2.6314,-2.6299,-2.6296,-2.6281,-2.6284,-2.6283,-2.6293,-2.6269,-2.6292,-2.6293,-2.6295,-2.6324,-2.6328,-2.6332,0,0,0,0,0,-2.636,-2.6374,-2.6365,-2.6363,-2.6352,-2.6349,-2.6348,-2.633,-2.6318,-2.6324,-2.6311,-2.6296,-2.6293,-2.6285,-2.6284,-2.6293,-2.6291,-2.6293,-2.6295,-2.6322,-2.6327,-2.6332,0,0,0,0,0,0,-2.6393,-2.6372,-2.6361,-2.637,-2.6362,-2.6344,-2.635,-2.6336,-2.6331,-2.6329,-2.6307,-2.6304,-2.631,-2.6302,-2.6294,-2.6306,-2.6289,-2.6291,-2.6311,-2.6315,-2.6319,-2.6321,-2.6269,0,0,0,0,0,-2.6402,-2.6402,-2.6383,-2.6393,-2.6389,-2.6371,-2.6369,-2.6356,-2.6346,-2.6343,-2.6331,-2.6322,-2.6318,-2.6316,-2.6313,-2.6323,-2.6318,-2.6329,-2.6333,-2.6336,-2.6337,-2.634,-2.6344,-2.6301,-2.6301,-2.6301,0,0,-2.6419,-2.6408,-2.6409,-2.6399,-2.6391,-2.6391,-2.6368,-2.6369,-2.6368,-2.6343,-2.6345,-2.6336,-2.6324,-2.6331,-2.6333,-2.6324,-2.6348,-2.6338,-2.6341,-2.634,-2.6342,-2.6346,-2.635,-2.6303,-2.6302,-2.6302,0,0,-2.6451,-2.6443,-2.6449,-2.6441,-2.6429,-2.6416,-2.6417,-2.6401,-2.6394,-2.6396,-2.6376,-2.6374,-2.637,-2.6361,-2.6357,-2.6383,-2.6368,-2.6382,-2.6402,-2.6405,-2.6408,-2.6411,-2.6418,-2.6422,-2.6384,-2.6384,-2.6384,0,-2.6474,-2.6473,-2.6454,-2.6456,-2.6452,-2.6428,-2.6434,-2.6427,-2.6414,-2.6411,-2.6401,-2.6393,-2.6384,-2.6387,-2.6393,-2.6391,-2.6391,-2.6384,-2.6409,-2.6412,-2.6414,-2.6421,-2.6424,-2.6386,-2.6385,-2.6385,-2.6385,0,-2.6502,-2.6501,-2.6508,-2.6495,-2.6491,-2.6495,-2.6476,-2.6475,-2.6462,-2.6449,-2.645,-2.6438,-2.643,-2.643,-2.6418,-2.6431,-2.6426,-2.6413,-2.6396,-2.642,-2.6426,-2.6429,-2.6388,-2.6387,-2.6387,-2.6386,0,0,-2.6555,-2.653,-2.6533,-2.6525,-2.6509,-2.6508,-2.651,-2.6502,-2.65,-2.6492,-2.6492,-2.6487,-2.6474,-2.6469,-2.6456,-2.6458,-2.6477,-2.6445,-2.6444,-2.645,-2.6489,-2.6498,-2.6501,-2.6468,-2.6468,-2.6468,-2.6489,0,-2.6582,-2.6584,-2.6566,-2.6573,-2.6571,-2.6547,-2.6549,-2.6538,-2.6527,-2.6523,-2.651,-2.6506,-2.6491,-2.6487,-2.6489,-2.6475,-2.6485,-2.6473,-2.6466,-2.6466,-2.6469,-2.6505,-2.6515,-2.6535,-2.6492,-2.6492,-2.6492,0,-2.6615,-2.6607,-2.6613,-2.6594,-2.6593,-2.6595,-2.6584,-2.6581,-2.6568,-2.656,-2.6553,-2.6537,-2.6536,-2.652,-2.6518,-2.6511,-2.6507,-2.6499,-2.65,-2.6498,-2.648,-2.6503,-2.6541,-2.6544,-2.6496,-2.6496,-2.6496,0,-2.6651,-2.6642,-2.6644,-2.6638,-2.6617,-2.6618,-2.661,-2.6596,-2.6591,-2.6582,-2.6579,-2.657,-2.6565,-2.6559,-2.654,-2.6531,-2.654,-2.6523,-2.6531,-2.6532,-2.6534,-2.6534,-2.6572,-2.6534,-2.6533,-2.6533,-2.6533,0,-2.6682,-2.6687,-2.6659,-2.666,-2.6664,-2.6642,-2.6646,-2.6635,-2.6623,-2.662,-2.66,-2.6598,-2.6575,-2.657,-2.6556,-2.6555,-2.6554,-2.6545,-2.6541,-2.6547,-2.6548,-2.6543,-2.6541,-2.6534,-2.6534,-2.6534,-2.6534,0,-2.6723,-2.6705,-2.6705,-2.6684,-2.6679,-2.6683,-2.6664,-2.6664,-2.665,-2.6648,-2.6646,-2.6625,-2.6618,-2.6599,-2.6588,-2.6578,-2.6581,-2.6574,-2.6585,-2.6582,-2.6591,-2.659,-2.6627,-2.663,-2.6591,-2.6591,-2.6592,0,-2.6744,-2.6747,-2.6726,-2.6723,-2.6714,-2.671,-2.6705,-2.6683,-2.6679,-2.6663,-2.6664,-2.6656,-2.6647,-2.6637,-2.6621,-2.6611,-2.6603,-2.6617,-2.6602,-2.6606,-2.6602,-2.6601,-2.6601,-2.662,-2.662,-2.6621,-2.6621,0,-2.6783,-2.6773,-2.6767,-2.6757,-2.6751,-2.6742,-2.6732,-2.673,-2.6706,-2.6702,-2.6694,-2.6688,-2.6675,-2.6666,-2.6654,-2.6644,-2.6628,-2.6626,-2.6627,-2.6632,-2.6638,-2.6633,-2.6593,-2.6625,-2.6625,-2.6624,-2.6624,-2.6624,-2.6814,-2.6814,-2.6799,-2.6791,-2.6781,-2.6772,-2.6769,-2.6755,-2.6748,-2.6736,-2.6724,-2.6717,-2.6702,-2.6684,-2.6675,-2.6669,-2.6661,-2.6663,-2.6663,-2.6664,-2.6665,-2.6639,-2.6667,-2.6666,-2.6666,-2.6666,-2.6666,0,-2.685,-2.6838,-2.6832,-2.6818,-2.6812,-2.6797,-2.6784,-2.678,-2.6774,-2.6762,-2.6754,-2.6744,-2.6735,-2.6716,-2.6705,-2.6704,-2.6696,-2.6702,-2.6701,-2.6698,-2.6674,-2.6673,-2.6708,-2.6708,-2.6708,-2.6708,-2.6708,-2.6708,-2.6868,-2.6867,-2.6855,-2.6849,-2.6837,-2.683,-2.6824,-2.6814,-2.6804,-2.6794,-2.6786,-2.6774,-2.6758,-2.6746,-2.6736,-2.6731,-2.6727,-2.6735,-2.6727,-2.6704,-2.6701,-2.6697,-2.6696,-2.6734,-2.6734,-2.6752,-2.6752,-2.6752]}]]